Location: Unspecified
(0.0000°N, 0.0000°E)
Time: 15:06:21
(UTC+00:00)

Envisat - Pass Details

Date: 13 December 2018
Orbit: 764 x 766 km, 98.2° (Epoch: 13 December)

Event Time Altitude Azimuth Distance (km) Brightness Sun altitude
Rises 19:37:53 0° 179° (S) 3,231 6.6 -23.7°
Reaches altitude 10° 19:40:15 10° 185° (S) 2,302 5.8 -24.2°
Maximum altitude 19:45:07 47° 258° (WSW) 1,000 3.9 -25.3°
Drops below altitude 10° 19:49:58 10° 331° (NNW) 2,292 5.5 -26.4°
Sets 19:52:20 0° 337° (NNW) 3,215 6.2 -26.9°
